Find Starlink 35788

NORAD ID: 66831 Int'l Des: 2025-280 Owner: SPXS Country: US Constellation: starlink operational
LEOCIRCULAR

現在のビュー

3D地球を読み込み中...

Starlink 35788について

説明を読み込み中...

次回通過

Passes for default location (London). Set your location on the main map for personalized predictions.

高度履歴

Loading altitude history...

軌道要素

1 66831U 25280L 26146.29366780 .00005307 00000-0 45207-3 0 9997
2 66831 70.0007 138.6532 0004076 262.2860 97.7836 14.98341069 27702
Epoch: May 26, 2026 • Age: 15 hours

現在のステータス

高度 585.8 km
速度 7.57 km/s
衛星直下点 67.27°N, 14.86°W
打ち上げ日 Dec 2, 2025
運用期間 0.4 years
タイプ internet

技術仕様

分類 Payload
質量 575.00 kg
乾燥質量 530.00 kg
総質量 575.00 kg
長さ 0.30 m
直径 4.10 m
スパン 29.00 m
形状 Box + pan
製造者 SPXS
バスタイプ Starlink V2MO
フェーズステータス In Orbit
所有者/国 SPXS/US

Most Searched